Regional Weather Roundup
Issued by NWS Grand Forks, ND

Home | Current Version | Previous Version | Graphics & Text | Print | Product List | Glossary On
Versions: 1 2 3 4 5 6 7 8 9 10 11 12 13 14 15 16 17 18 19 20 21 22 23 24 25 26 27 28 29 30 31 32 33 34 35 36 37 38 39 40 41 42 43 44 45 46 47 48 49 50
000
ASUS43 KFGF 010031
RWRFGF
PRAIRIE TO PINES  WEATHER ROUNDUP
NATIONAL WEATHER SERVICE EASTERN NORTH DAKOTA/GRAND FORKS ND
700 PM CDT SUN AUG 31 2014

 **SATELLITE DATA USED TO AUGMENT SKY COVER AT AUTOMATED STATIONS**
 *****  WEATHER ACROSS EASTERN NORTH DAKOTA  *****

CITY           SKY/WX    TMP DP  RH WIND       PRES   REMARKS
GRAND FORKS    CLOUDY    70  60  70 W6        29.60R
6HR MIN TEMP:  66; 6HR MAX TEMP:  74; 6HR PCP: TRACE;

GRAND FRKS AFB CLOUDY    72  63  73 W6        29.62S
GRAND FRKS NWS   N/A     70 N/A N/A NW6         N/A
DEVILS LAKE    MOSUNNY   70  54  56 NW12      29.64R
6HR MIN TEMP:  66; 6HR MAX TEMP:  73;

FARGO          CLOUDY    72  63  73 W7        29.61F
WAHPETON ARPT  CLOUDY    68  63  83 CALM      29.61F
$$

 ***** WEATHER ACROSS CENTRAL AND WESTERN NORTH DAKOTA  *****

CITY           SKY/WX    TMP DP  RH WIND       PRES   REMARKS
BISMARCK       PTSUNNY   72  57  59 CALM      29.70R
6HR MIN TEMP:  70; 6HR MAX TEMP:  78;

MINOT          MOSUNNY   69  51  52 NW8       29.68R
6HR MIN TEMP:  69; 6HR MAX TEMP:  75;

JAMESTOWN      PTSUNNY   71  58  63 N3        29.66F
6HR MIN TEMP:  69; 6HR MAX TEMP:  73;

MINOT AFB      MOSUNNY   71  51  50 N6        29.67S
GARRISON         N/A     72  51  47 N7        29.69R
WILLISTON      CLOUDY    63  55  75 NE8       29.72S
6HR MIN TEMP:  58; 6HR MAX TEMP:  76; 6HR PCP:  0.19;

DICKINSON      CLOUDY    67  58  72 SW13      29.73R
6HR MIN TEMP:  67; 6HR MAX TEMP:  73;

HETTINGER      CLOUDY    62  49  62 W10       29.78R
6HR MIN TEMP:  62; 6HR MAX TEMP:  70; 6HR PCP: TRACE;

$$

 *****  OTHER AIRPORT OBSERVATIONS IN OUR AREA  *****

CITY           SKY/WX    TMP DP  RH WIND       PRES   REMARKS
WALHALLA         N/A     66  63  88 N9        29.61R
GRAFTON AIRPOR MOCLDY    70  61  73 NW5       29.60S
VALLEY CITY AR FAIR      68  63  83 NW8       29.65F
CANDO          FAIR      66  54  63 NW8       29.66R
CAVALIER APRT  FAIR      68  59  73 N8        29.60R
GWINNER        CLEAR     72  66  83 W6        29.64F
ROLLA          FAIR      64  54  68 NW13      29.67R
 ***** THE ABOVE OBSERVATIONS ARE NON NWS ARE NOT QUALITY
       CONTROLLED AND MAY MIS-REPORT RAIN FOR SNOW...
$$

  *****  WEATHER ACROSS NORTHERN MINNESOTA  *****

CITY           SKY/WX    TMP DP  RH WIND       PRES   REMARKS
FLAG ISLAND    MOCLDY    64  63  94 SW12      29.52R
WARROAD        MOCLDY    64  61  88 W8        29.56S
ROSEAU         PTSUNNY   66  61  82 W12       29.57R
HALLOCK        CLOUDY    66  63  88 N6        29.59R
THF RVR FALLS  CLOUDY    68  63  83 W7        29.61S
6HR MIN TEMP:  64; 6HR MAX TEMP:  70; 6HR PCP:  0.02;

BAUDETTE       MOCLDY    66  62  87 SW10      29.56R
6HR MIN TEMP:  62; 6HR MAX TEMP:  67; 6HR PCP:  0.02;

WASKISH        MOCLDY    66  64  94 SW12      29.59S
CROOKSTON      CLOUDY    70  63  78 W10       29.61S
$$
  *****  WEATHER ACROSS CENTRAL AND WEST MINNESOTA  *****

CITY           SKY/WX    TMP DP  RH WIND       PRES   REMARKS
FOSSTON        CLOUDY    66  63  88 SW7       29.62F
BEMIDJI        MOCLDY    67  62  85 W8        29.61F
PARK RAPIDS    MOCLDY    69  63  81 W10       29.63F
6HR MIN TEMP:  68; 6HR MAX TEMP:  78;

ELBOW LAKE     FAIR      68  63  84 W7        29.64S
6HR MIN TEMP:  69; 6HR MAX TEMP:  79;

WADENA         MOCLDY    68  63  83 CALM      29.63F
DETROIT LAKES  CLOUDY    68  63  83 W5        29.63F
MOORHEAD       CLOUDY    72  68  88 W3        29.61F
FERGUS FALLS   CLOUDY    70  63  78 W9        29.62S
MORRIS MN      LGT RAIN  72  64  78 CALM      29.64R
STAPLES        MOCLDY    70  63  78 NW6       29.63F
$$
  *****  WEATHER ELSEWHERE ACROSS MINNESOTA  *****

CITY           SKY/WX    TMP DP  RH WIND       PRES   REMARKS
DULUTH         MOCLDY    68  62  81 E12       29.65F THUNDER
6HR MIN TEMP:  65; 6HR MAX TEMP:  69; 6HR PCP: TRACE;

INTRNTL FALLS  CLOUDY    67  64  90 W12G17    29.59R
6HR MIN TEMP:  66; 6HR MAX TEMP:  70; 6HR PCP:  0.22;

ELY            CLOUDY    64  57  77 CALM      29.66F
CLOQUET        MOCLDY    66  63  88 CALM      29.64F
WHEATON        CLOUDY    66  63  88 CALM      29.65S
BRAINERD       MOCLDY    72  66  81 W10       29.64S
6HR MIN TEMP:  71; 6HR MAX TEMP:  78; 6HR PCP:  0.19;

HIBBING        PTCLDY    69  63  81 SE9       29.62F
6HR MIN TEMP:  67; 6HR MAX TEMP:  73;

ALEXANDRIA     MOCLDY    71  63  75 W10       29.66F
6HR MIN TEMP:  71; 6HR MAX TEMP:  80;

SAINT CLOUD    TSTM      67  64  90 S5        29.64F FOG
6HR MIN TEMP:  71; 6HR MAX TEMP:  83; 6HR PCP:  0.16;

MINNEAPOLIS    CLOUDY    80  68  66 SW13      29.65F
6HR MIN TEMP:  80; 6HR MAX TEMP:  85; 6HR PCP: TRACE;

$$

  *****  WEATHER ACROSS SOUTH DAKOTA  *****

CITY           SKY/WX    TMP DP  RH WIND       PRES   REMARKS
SIOUX FALLS    LGT RAIN  70  61  73 W6        29.69F
6HR MIN TEMP:  70; 6HR MAX TEMP:  82; 6HR PCP: TRACE;

BROOKINGS      NOT AVBL
WATERTOWN      CLOUDY    69  62  78 CALM      29.67F
6HR MIN TEMP:  68; 6HR MAX TEMP:  78; 6HR PCP: TRACE;

HURON          CLOUDY    68  59  73 CALM      29.69R
6HR MIN TEMP:  65; 6HR MAX TEMP:  80; 6HR PCP: TRACE;

SISSETON         N/A     67  65  93 S5        29.63F
ABERDEEN       PTSUNNY   68  64  87 W6        29.66F
6HR MIN TEMP:  66; 6HR MAX TEMP:  73; 6HR PCP:  0.01;

MITCHELL       CLOUDY    72  60  66 CALM      29.69F
PIERRE         CLOUDY    69  60  73 NW5       29.68F
6HR MIN TEMP:  65; 6HR MAX TEMP:  71; 6HR PCP:  0.01;

MOBRIDGE       PTSUNNY   70  61  73 NE3       29.68R
RAPID CITY     CLOUDY    59  56  89 W6        29.83R
6HR MIN TEMP:  56; 6HR MAX TEMP:  72; 6HR PCP:  0.88;

$$

  *****  SOME WEATHER IN NEARBY STATES *****

CITY           SKY/WX    TMP DP  RH WIND       PRES   REMARKS
GLASGOW MT     MOSUNNY   74  43  32 W12       29.73R
6HR MIN TEMP:  68; 6HR MAX TEMP:  75;

GREAT FALLS MT CLOUDY    65  37  35 W17G26    29.87R
6HR MIN TEMP:  64; 6HR MAX TEMP:  70;

CHEYENNE WY    MOSUNNY   70  37  29 W16G25    29.96S
6HR MIN TEMP:  52; 6HR MAX TEMP:  71; 6HR PCP: TRACE;

SCOTTSBLUFF NE MOSUNNY   69  49  48 NW25G35   29.84R
6HR MIN TEMP:  64; 6HR MAX TEMP:  79; 6HR PCP: TRACE;

OMAHA NE       TSTM      75  69  81 W22G40    29.64R
6HR MIN TEMP:  74; 6HR MAX TEMP:  85; 6HR PCP: TRACE;

DES MOINES IA  MOCLDY    82  72  71 S15       29.68F
6HR MIN TEMP:  82; 6HR MAX TEMP:  89; 6HR PCP: TRACE;

DAVENPORT IA   CLEAR     81  68  64 S15G21    29.83F
6HR MIN TEMP:  81; 6HR MAX TEMP:  85;

CHICAGO IL     PTCLDY    82  65  56 SW8       29.89F
6HR MIN TEMP:  82; 6HR MAX TEMP:  85;

EAU CLAIRE WI  MOCLDY    80  70  71 S14       29.69F
6HR MIN TEMP:  77; 6HR MAX TEMP:  84;

LA CROSSE WI   MOCLDY    83  69  62 S12G21    29.74F
6HR MIN TEMP:  82; 6HR MAX TEMP:  87; 6HR PCP: TRACE;

$$

  *****  SOME NATIONAL WEATHER *****

CITY           SKY/WX    TMP DP  RH WIND       PRES   REMARKS
LA GUARDIA NY  CLOUDY    78  73  84 S7        29.98R
6HR MIN TEMP:  74; 6HR MAX TEMP:  92; 6HR PCP:  0.79;

RALEIGH NC     MOCLDY    82  71  69 CALM      30.07S
6HR MIN TEMP:  82; 6HR MAX TEMP:  91;

ATLANTA GA     MOCLDY    86  67  52 W3        30.11R
6HR MIN TEMP:  85; 6HR MAX TEMP:  89; 6HR PCP: TRACE;

NEW ORLEANS LA MOCLDY    87  75  67 S8        30.03S HX  96
6HR MIN TEMP:  87; 6HR MAX TEMP:  92; 6HR PCP: TRACE;

OKLAHOMA CITY  MOSUNNY   93  66  40 S24G31    29.79F HX  96
6HR MIN TEMP:  93; 6HR MAX TEMP:  97;

ALBUQUERQUE NM MOSUNNY   92  37  14 W14G23    29.98F
6HR MIN TEMP:  86; 6HR MAX TEMP:  92;

SALT LAKE CITY SUNNY     75  35  23 N8        30.00F
6HR MIN TEMP:  71; 6HR MAX TEMP:  76;

LOS ANGELES CA MOSUNNY   77  66  68 W10       29.77F
6HR MIN TEMP:  76; 6HR MAX TEMP:  79;

BOISE ID       SUNNY     73  41  31 N12       29.96F


USA.gov is the U.S. government's official web portal to all federal, state and local government web resources and services.